Probability
0 0 0 0 0 0 0 0 0 0 0 0 0 0 0 0 0 0 0 0 0 1 2 3 3 3 3 3 3 1 1 2 3 2 1 0 0 0 0 0 0 0 0 0
0 0 0 0 0 0 0 0 0 0 0 0 0 0 0 0 0 0 0 0 0 0 1 3 3 3 3 3 3 2 1 2 2 2 1 0 0 0 0 0 0 0 0 0
0 0 0 0 0 0 0 0 0 0 0 0 0 0 0 0 0 0 0 0 0 0 1 2 3 3 3 3 3 3 1 1 1 1 0 0 0 0 0 0 0 0 0 0
0 0 0 0 0 0 0 0 0 0 0 0 0 0 0 0 0 0 0 0 0 0 1 3 3 3 3 3 3 3 2 1 0 0 0 0 0 0 0 0 0 0 0 0
0 0 0 0 0 0 0 0 0 0 0 0 0 0 0 0 0 0 0 0 0 0 2 3 3 3 3 3 3 3 2 1 0 0 0 0 0 0 0 0 0 0 0 0
0 0 0 0 0 0 0 0 0 0 0 0 0 0 0 0 0 0 0 0 0 0 1 3 3 3 3 3 3 3 2 1 0 0 0 0 0 0 0 0 0 0 0 0
0 0 0 0 0 0 0 0 0 0 0 0 0 0 0 0 0 0 0 0 0 0 1 3 3 4 4 3 3 3 2 1 0 0 0 0 0 0 0 0 0 0 0 0
0 0 0 0 0 0 0 0 0 0 0 0 0 0 0 0 0 0 0 0 0 1 2 3 4 5 5 4 3 3 1 0 0 0 0 0 0 0 0 0 0 0 0 0
0 0 0 0 0 0 0 0 0 0 0 0 0 0 0 0 0 0 0 0 1 2 3 3 3 4 5 5 4 2 1 0 1 1 1 0 0 0 0 0 0 0 0 0
0 0 0 0 0 0 0 0 0 0 0 0 0 0 0 0 0 0 0 1 1 2 3 3 3 3 4 5 4 2 0 0 1 2 2 1 0 0 0 0 0 0 0 0
0 0 0 0 0 0 0 0 0 0 0 0 0 0 0 0 0 0 1 1 1 2 3 3 3 3 3 3 2 1 0 0 1 2 3 2 0 0 0 0 0 0 0 0
0 0 0 0 0 0 0 0 0 0 0 0 0 0 0 0 0 0 0 1 2 3 3 3 3 3 2 1 1 0 0 0 1 1 2 1 0 0 0 0 0 0 0 0
0 0 0 0 0 0 0 0 0 0 0 0 0 0 0 0 0 0 0 0 1 2 2 2 2 1 1 0 0 0 0 0 0 0 0 0 0 0 0 0 0 0 0 0
0 0 0 0 0 0 0 0 0 0 0 0 0 0 0 0 0 0 0 0 0 0 1 1 1 0 0 0 0 0 0 0 0 0 0 0 0 0 0 0 0 0 0 0
0 0 0 0 0 0 0 0 0 0 0 0 0 0 0 0 0 0 0 0 0 0 0 0 0 0 0 0 0 0 0 0 0 0 0 0 0 0 0 0 0 0 0 0
0 0 0 0 0 0 0 0 0 0 0 0 0 0 0 0 0 0 0 0 0 0 0 0 0 0 0 0 0 0 0 0 0 0 0 0 0 0 0 0 0 0 0 0
0 0 0 0 0 0 0 0 0 0 0 0 0 0 0 0 0 0 0 0 0 0 0 0 0 0 0 0 0 0 0 0 0 0 0 0 0 0 0 0 0 0 0 0
0 0 0 0 0 0 0 0 0 0 0 0 0 0 0 0 0 0 0 0 0 0 0 0 0 0 0 0 0 0 0 0 0 0 0 0 0 0 0 0 0 0 0 0
0 0 0 0 0 0 0 0 0 0 0 0 0 0 0 0 0 0 0 0 0 0 0 0 0 0 0 0 0 0 0 0 0 0 0 0 0 0 0 0 0 0 0 0
0 0 0 0 0 0 0 0 0 0 0 0 0 0 0 0 0 0 0 0 0 0 0 0 0 0 0 0 0 0 0 0 0 0 0 0 0 0 0 0 0 0 0 0
0 0 0 0 0 0 0 0 0 0 0 0 0 0 0 0 0 0 0 0 0 0 0 0 0 0 0 0 0 0 0 0 0 0 0 0 0 0 0 0 0 0 0 0
0 0 0 0 0 0 0 0 0 0 0 0 0 0 0 0 0 0 0 0 0 0 0 0 0 0 0 0 0 0 0 0 0 0 0 0 0 0 0 0 0 0 0 0
0 0 0 0 0 0 0 0 0 0 0 0 0 0 0 0 0 0 0 0 0 0 0 0 0 0 0 0 0 0 0 0 0 0 0 0 0 0 0 0 0 0 0 0
0 0 0 0 0 0 0 0 0 0 0 0 0 0 0 0 0 0 0 0 0 0 0 0 0 0 0 0 0 0 0 0 0 0 0 0 0 0 0 0 0 0 0 0
0 0 0 0 0 0 0 0 0 0 0 0 0 0 0 0 0 0 0 0 0 0 0 0 0 0 0 0 0 0 0 0 0 0 0 0 0 0 0 0 0 0 0 0
0 0 0 0 0 0 0 0 0 0 0 0 0 0 0 0 0 0 0 0 0 0 0 0 0 0 0 0 0 0 0 0 0 0 0 0 0 0 0 0 0 0 0 0
0 0 0 0 0 0 0 0 0 0 0 0 0 0 0 0 0 0 0 0 0 0 0 0 0 0 0 0 0 0 0 0 0 0 0 0 0 0 0 0 0 0 0 0
Wind_Speed
6 5 4 5 6 5 6 7 8 8 7 9 7 5 5 4 3 2 2 3 3 4 4 3 3 3 3 3 3 4 5 5 5 5 4 4 4 3 3 3 4 4 3 3
3 3 4 5 7 6 7 6 6 5 8 8 6 4 4 4 3 4 5 5 4 4 4 4 5 5 4 4 4 4 5 5 4 4 4 4 4 4 3 3 3 3 3 3
3 3 2 7 8 8 6 6 7 8 9 5 4 5 5 5 5 6 6 6 5 6 6 6 6 6 6 5 4 4 5 4 4 4 4 4 4 4 4 4 3 3 3 4
1 0 7 8 3 5 6 6 6 6 5 6 7 6 5 5 6 7 6 6 6 6 6 6 5 5 5 4 5 5 5 5 4 4 4 4 4 4 4 3 4 4 4 4
2 3 7 7 4 5 4 6 5 6 6 5 3 2 5 5 6 7 7 6 6 6 5 5 5 6 5 5 5 5 5 5 5 5 5 4 5 5 4 4 4 4 3 4
3 3 7 8 3 2 2 5 4 5 5 4 1 2 7 5 4 6 5 4 4 3 3 4 5 5 6 6 6 6 6 6 5 6 6 6 6 5 3 4 4 4 3 4
5 5 9 7 2 3 3 7 3 4 4 4 6 7 6 4 4 4 4 3 3 3 4 5 5 7 7 6 7 7 5 5 5 5 6 5 4 4 3 4 3 3 3 3
5 5 9 3 4 6 7 4 3 3 4 4 6 5 5 4 4 3 3 2 2 3 3 3 5 7 7 7 7 4 5 5 5 5 5 4 4 4 4 4 4 4 3 2
8 8 5 3 5 5 3 4 4 4 5 4 5 5 5 4 3 3 3 2 2 3 3 3 5 7 8 7 5 5 5 5 5 5 4 4 5 5 4 4 4 4 4 3
5 7 6 6 5 5 4 5 5 5 5 4 5 5 4 4 4 3 3 3 2 2 2 3 4 6 6 5 5 6 6 5 5 5 4 3 3 4 5 5 5 4 5 4
6 7 6 6 6 5 5 5 5 4 5 5 5 5 4 4 4 3 3 2 2 3 4 4 4 4 4 4 6 5 5 5 4 4 5 4 4 4 6 6 7 7 6 6
8 7 6 7 6 5 5 6 6 5 4 4 5 6 5 4 4 3 2 2 2 2 3 3 3 4 4 4 6 6 5 5 4 4 4 4 3 2 3 5 7 9 8 6
7 6 6 7 6 5 5 5 5 5 5 5 5 5 4 4 3 2 2 2 3 4 3 3 3 3 4 5 6 6 6 5 4 4 4 4 4 4 3 2 3 6 7 8
5 4 6 6 6 6 5 5 4 4 5 4 4 4 3 3 2 2 3 4 3 2 2 2 2 3 4 4 5 5 5 5 5 5 5 5 5 5 4 4 3 2 3 6
6 6 7 6 5 5 4 3 3 4 4 4 3 3 3 3 4 4 3 2 2 2 1 2 2 3 2 4 5 5 5 4 4 4 4 4 4 4 4 4 4 3 2 2
7 6 5 5 6 6 5 4 4 5 4 4 3 3 4 4 3 2 1 2 3 3 2 2 3 3 2 3 4 4 4 6 5 4 4 4 4 4 4 4 4 4 4 3
5 6 6 6 7 6 6 6 6 6 4 4 4 3 2 2 1 1 2 2 2 2 2 3 3 2 2 3 4 3 3 4 6 4 4 4 4 5 5 5 5 4 4 4
6 7 7 7 6 6 6 5 5 4 4 4 3 2 2 3 3 3 2 1 1 1 1 2 2 2 1 2 3 3 3 3 4 4 4 4 4 4 4 4 4 4 3 3
5 6 6 5 5 4 4 4 4 3 3 2 2 2 3 3 2 2 1 1 1 2 3 2 2 1 1 2 2 2 3 3 3 3 3 4 3 3 4 4 4 4 4 3
4 4 4 4 4 3 3 3 2 2 2 2 1 1 1 1 1 1 1 1 2 3 2 1 1 1 1 2 2 2 3 3 3 3 3 3 3 4 4 4 4 4 4 3
5 5 5 5 5 4 3 3 2 2 2 1 2 2 2 1 1 1 1 1 3 1 1 1 0 0 0 1 1 2 2 3 3 3 3 3 3 3 3 3 3 3 3 3
4 4 5 5 4 5 4 3 1 1 1 1 0 1 1 1 1 0 0 1 1 1 1 0 0 0 0 1 1 2 2 2 2 2 2 3 3 3 3 3 3 3 3 3
4 4 4 4 4 4 4 3 2 1 0 0 0 0 1 1 1 1 1 2 0 0 1 0 0 1 1 1 1 1 1 1 2 2 2 3 3 3 3 3 3 3 3 3
3 4 4 4 3 3 4 4 2 1 1 1 0 0 1 0 1 1 1 1 1 1 0 0 1 1 1 1 1 1 1 1 1 1 2 2 2 2 3 3 3 2 3 3
3 3 3 3 3 3 3 3 2 2 2 2 2 2 1 0 1 1 1 0 0 1 1 1 1 1 1 1 1 0 1 1 1 1 2 2 2 2 3 3 3 2 2 2
2 2 2 3 3 3 2 1 1 1 1 1 2 2 1 1 1 1 1 0 1 1 1 0 0 0 0 0 0 0 0 1 1 1 1 2 2 2 2 2 3 2 2 2
2 2 2 2 2 2 2 1 1 1 1 1 1 2 1 1 1 1 1 1 0 0 0 0 0 0 0 0 0 1 1 0 0 0 1 1 1 1 1 2 2 2 2 2
Wind_Direction
239 245 233 242 242 215 209 206 208 232 237 256 261 263 271 274 273 275 260 251 227 216 214 204 191 192 194 190 178 173 173 181 193 194 185 180 181 182 175 175 185 183 175 178
267 261 246 255 249 229 229 225 225 240 257 254 259 260 267 263 250 256 250 242 234 224 212 205 201 196 193 192 183 170 175 186 185 178 175 177 180 175 171 174 176 170 175 179
256 275 298 259 239 219 221 220 204 225 241 255 262 252 249 248 241 244 247 242 231 224 219 212 205 195 194 192 175 171 178 177 176 177 177 182 174 167 177 181 173 173 180 174
223 176 237 247 234 201 214 241 223 228 240 237 242 247 254 242 234 241 244 242 235 226 224 215 199 191 187 174 171 178 182 181 178 176 181 179 172 180 188 180 180 188 191 189
161 221 269 282 242 187 199 253 226 221 246 255 268 309 287 249 230 234 235 235 231 223 218 205 192 183 170 173 175 180 191 191 187 181 181 179 186 194 191 181 188 193 190 188
167 210 242 250 237 190 148 263 247 217 236 240 183 258 268 261 245 251 248 240 234 218 199 191 190 172 170 178 181 196 202 199 189 184 184 190 196 193 189 187 194 188 192 197
194 224 257 255 236 126 186 245 257 228 230 213 214 229 253 273 263 257 250 245 230 202 202 199 182 170 178 186 201 206 194 186 183 186 190 191 188 186 175 178 175 182 193 206
175 207 250 239 145 182 222 252 257 250 240 232 248 266 277 276 270 270 269 261 225 207 214 192 177 174 185 203 208 188 176 180 185 187 190 183 173 175 172 168 174 186 189 209
196 216 241 225 223 243 233 245 256 251 256 240 254 271 275 279 276 266 256 258 237 209 203 193 187 184 195 209 185 171 174 185 188 184 185 177 177 178 173 177 183 190 190 203
243 259 259 266 269 264 243 243 250 246 244 233 246 262 268 280 277 270 260 252 225 189 196 213 204 203 207 195 176 173 183 190 185 177 179 182 184 183 183 188 192 196 197 205
250 269 287 279 258 256 263 262 262 256 242 230 231 254 255 266 266 260 261 246 209 197 207 218 205 207 204 184 172 177 185 189 186 184 182 187 195 199 198 205 198 197 204 198
240 240 233 260 267 267 267 262 254 250 258 250 231 241 249 254 243 235 239 239 231 220 217 224 214 214 206 188 176 176 185 190 188 186 185 185 188 212 228 219 214 212 211 205
247 259 252 267 283 277 261 256 252 239 239 249 251 237 232 238 233 218 230 226 223 221 217 215 214 222 214 191 182 183 189 193 190 188 188 188 188 189 206 236 216 214 214 211
264 280 281 277 276 282 277 270 264 258 254 244 240 237 230 226 223 215 229 228 225 213 210 202 208 232 221 190 185 190 192 195 192 192 191 192 196 197 194 194 204 230 230 212
273 258 255 271 284 294 298 305 295 280 269 256 236 221 212 215 227 238 239 217 180 175 206 204 220 243 222 192 189 191 191 196 195 190 189 191 193 193 193 196 199 199 188 198
285 288 280 279 278 284 291 286 275 273 265 250 235 228 221 217 227 242 225 185 173 199 219 219 239 248 214 191 190 195 199 204 197 185 182 182 186 189 191 194 198 197 199 197
286 289 290 289 283 282 274 261 254 256 255 245 239 236 221 194 206 237 244 225 203 216 225 223 242 246 213 193 186 193 193 195 193 185 187 189 190 193 192 192 199 200 204 197
256 261 264 263 268 276 280 278 267 253 238 241 242 222 200 194 216 235 237 193 121 328 281 253 246 234 214 199 191 185 184 189 185 184 186 185 187 189 186 191 197 198 198 188
278 276 278 280 276 269 275 277 271 258 250 232 207 214 219 218 224 231 197 152 172 264 280 273 253 241 221 216 208 177 171 177 178 178 177 178 181 182 185 189 193 193 188 185
311 303 300 303 305 293 284 282 276 269 261 229 200 197 222 243 212 191 166 208 245 253 262 249 235 229 226 210 200 158 158 166 172 170 167 170 178 184 187 190 190 188 188 187
329 328 326 319 316 315 303 290 273 271 282 241 195 197 208 229 191 182 155 274 296 304 278 252 285 283 258 201 153 127 145 157 165 168 169 174 182 183 184 184 184 188 189 187
324 328 326 325 327 325 321 318 308 299 313 310 208 147 133 149 187 209 247 249 268 291 330 253 133 198 337 58 97 113 138 152 166 172 175 180 186 188 187 186 185 186 189 188
309 312 315 318 320 318 325 332 335 333 322 283 247 158 163 236 233 195 279 291 243 305 345 240 115 62 43 61 90 113 124 144 170 179 186 189 191 187 184 187 189 186 185 186
310 312 315 321 334 337 331 328 338 347 1 4 6 212 184 177 318 286 256 289 352 354 30 91 93 87 75 85 108 119 136 164 178 186 190 190 184 178 180 183 186 186 182 178
299 308 317 326 327 317 314 327 357 6 13 17 5 344 332 254 227 262 288 177 79 26 19 32 53 48 48 94 118 140 187 184 181 182 187 187 182 181 183 182 178 175 176 177
299 299 296 295 293 293 298 309 321 329 358 359 339 334 343 349 348 334 344 47 106 41 1 321 301 306 347 120 200 237 233 225 227 223 200 183 177 177 178 175 169 175 179 177
309 307 310 317 317 306 302 299 286 283 282 273 303 314 328 343 354 357 8 30 78 132 346 343 303 292 287 246 277 276 271 263 240 210 180 162 158 168 176 175 176 172 170 167